TimeULAT,TemperatureF,Dew PointF,Humidity,Sea Level PressureIn,VisibilityMPH,Wind Direction,Wind SpeedMPH,Gust SpeedMPH,PrecipitationIn,Events,Conditions,WindDirDegrees,DateUTC
12:00 AM,-0.4,-4.0,85,30.27,6.2,Calm,Calm,-,N/A,,Scattered Clouds,0,2012-11-21 16:00:00
12:30 AM,1.4,-4.0,78,30.24,6.2,Calm,Calm,-,N/A,,Scattered Clouds,0,2012-11-21 16:30:00
1:00 AM,1.4,-4.0,78,30.27,6.2,Variable,2.2,-,N/A,,Scattered Clouds,0,2012-11-21 17:00:00
1:30 AM,1.4,-4.0,78,30.27,6.2,Variable,2.2,-,N/A,,Scattered Clouds,0,2012-11-21 17:30:00
2:00 AM,3,-5,54,30.75,31,ESE,2.2,,,,Scattered Clouds,120,2012-11-21 18:00:00
2:00 AM,-0.4,-5.8,78,30.27,6.2,Variable,4.5,-,N/A,,Scattered Clouds,0,2012-11-21 18:00:00
2:30 AM,-2.2,-5.8,85,30.27,5.0,NNW,4.5,-,N/A,,Scattered Clouds,330,2012-11-21 18:30:00
3:00 AM,1.4,-2.2,85,30.27,5.0,Variable,2.2,-,N/A,,Scattered Clouds,0,2012-11-21 19:00:00
3:30 AM,1.4,-2.2,85,30.27,5.0,Variable,2.2,-,N/A,Snow,Light Snow,0,2012-11-21 19:30:00
4:00 AM,-0.4,-4.0,85,30.27,5.0,NNW,4.5,-,N/A,Snow,Light Snow,340,2012-11-21 20:00:00
5:00 AM,-0,-8,54,30.78,,ESE,2.2,,,,Mostly Cloudy,120,2012-11-21 21:00:00
5:00 AM,-2.2,-5.8,85,30.27,6.2,Variable,2.2,-,N/A,,Mostly Cloudy,0,2012-11-21 21:00:00
5:30 AM,-0.4,-4.0,85,30.27,6.2,WNW,6.7,-,N/A,Snow,Light Snow,300,2012-11-21 21:30:00
6:00 AM,-0.4,-4.0,85,30.27,6.2,Variable,2.2,-,N/A,Snow,Light Snow,0,2012-11-21 22:00:00
6:30 AM,-0.4,-4.0,85,30.27,6.2,Calm,Calm,-,N/A,Snow,Light Snow,0,2012-11-21 22:30:00
7:00 AM,-0.4,-4.0,85,30.27,6.2,Calm,Calm,-,N/A,Snow,Light Snow,0,2012-11-21 23:00:00
7:30 AM,1.4,-2.2,85,30.27,6.2,Variable,2.2,-,N/A,Snow,Light Snow,0,2012-11-21 23:30:00
8:00 AM,2,-4,64,30.77,6,NE,2.2,,,Snow,Light Snow,40,2012-11-22 00:00:00
8:00 AM,1.4,-2.2,85,30.27,5.0,West,4.5,-,N/A,Snow,Light Snow,270,2012-11-22 00:00:00
8:30 AM,1.4,-0.4,92,30.27,3.7,WSW,4.5,-,N/A,Snow,Light Snow,240,2012-11-22 00:30:00
9:00 AM,1.4,-2.2,85,30.27,3.7,WSW,8.9,-,N/A,Snow,Light Snow,250,2012-11-22 01:00:00
9:30 AM,1.4,-2.2,85,30.27,1.9,West,4.5,-,N/A,Snow,Snow,260,2012-11-22 01:30:00
10:00 AM,3.2,-0.4,85,30.27,3.7,WSW,4.5,-,N/A,Snow,Light Snow,250,2012-11-22 02:00:00
10:30 AM,3.2,-0.4,85,30.27,5.0,WSW,6.7,-,N/A,Snow,Light Snow,240,2012-11-22 02:30:00
11:00 AM,6,-0,64,30.72,1,WSW,8.9,,,Snow,Light Snow,250,2012-11-22 03:00:00
11:00 AM,3.2,-0.4,85,30.27,6.2,West,6.7,-,N/A,,Scattered Clouds,260,2012-11-22 03:00:00
11:30 AM,3.2,-0.4,85,30.27,6.2,West,4.5,-,N/A,,Partly Cloudy,270,2012-11-22 03:30:00
12:00 PM,3.2,-0.4,85,30.24,6.2,Variable,2.2,-,N/A,,Partly Cloudy,0,2012-11-22 04:00:00
12:30 PM,3.2,-0.4,85,30.24,6.2,NW,4.5,-,N/A,,Partly Cloudy,320,2012-11-22 04:30:00
1:00 PM,5.0,1.4,85,30.21,6.2,Variable,2.2,-,N/A,,Partly Cloudy,0,2012-11-22 05:00:00
1:30 PM,5.0,1.4,85,30.18,6.2,Variable,2.2,-,N/A,,Partly Cloudy,0,2012-11-22 05:30:00
2:00 PM,10,-2,42,30.59,12,WSW,8.9,,,,Smoke,250,2012-11-22 06:00:00
2:00 PM,8.6,1.4,73,30.18,-9999.0,Calm,Calm,-,N/A,,Clear,0,2012-11-22 06:00:00
2:30 PM,6.8,-0.4,72,30.18,-9999.0,Variable,2.2,-,N/A,,Clear,0,2012-11-22 06:30:00
3:00 PM,6.8,-0.4,72,30.15,-9999.0,West,4.5,-,N/A,,Clear,260,2012-11-22 07:00:00
3:30 PM,5.0,-0.4,78,30.15,-9999.0,Variable,2.2,-,N/A,,Clear,0,2012-11-22 07:30:00
4:00 PM,5.0,-2.2,72,30.15,-9999.0,SW,4.5,-,N/A,,Clear,230,2012-11-22 08:00:00
4:30 PM,5.0,-4.0,66,30.15,-9999.0,Variable,2.2,-,N/A,,Clear,0,2012-11-22 08:30:00
5:00 PM,8,-5,41,30.57,6,West,6.7,,,,Smoke,270,2012-11-22 09:00:00
5:00 PM,3.2,-2.2,78,30.15,-9999.0,Variable,2.2,-,N/A,,Clear,0,2012-11-22 09:00:00
5:30 PM,1.4,-5.8,72,30.12,-9999.0,Variable,2.2,-,N/A,,Clear,0,2012-11-22 09:30:00
6:00 PM,-2.2,-7.6,78,30.12,-9999.0,Variable,2.2,-,N/A,,Clear,0,2012-11-22 10:00:00
6:30 PM,-11.2,-14.8,84,30.12,-9999.0,Calm,Calm,-,N/A,,Clear,0,2012-11-22 10:30:00
7:00 PM,-11.2,-14.8,84,30.12,-9999.0,South,6.7,-,N/A,,Clear,170,2012-11-22 11:00:00
7:30 PM,-11.2,-16.6,77,30.12,-9999.0,South,6.7,-,N/A,,Clear,170,2012-11-22 11:30:00
8:00 PM,3,-5,55,30.59,31,SE,4.5,,,,,130,2012-11-22 12:00:00
8:00 PM,-5.8,-11.2,77,30.12,-9999.0,Variable,2.2,-,N/A,,Clear,0,2012-11-22 12:00:00
8:30 PM,-9.4,-14.8,77,30.12,-9999.0,Calm,Calm,-,N/A,,Clear,0,2012-11-22 12:30:00
9:00 PM,-11.2,-16.6,77,30.09,-9999.0,Variable,2.2,-,N/A,,Clear,0,2012-11-22 13:00:00
9:30 PM,-14.8,-18.4,84,30.09,-9999.0,SSE,4.5,-,N/A,,Clear,160,2012-11-22 13:30:00
10:00 PM,-13.0,-16.6,84,30.09,-9999.0,Variable,4.5,-,N/A,,Clear,0,2012-11-22 14:00:00
10:30 PM,-13.0,-18.4,77,30.06,-9999.0,Variable,2.2,-,N/A,,Clear,0,2012-11-22 14:30:00
11:00 PM,-2,-9,61,30.59,,Calm,Calm,,,,Smoke,,2012-11-22 15:00:00
11:00 PM,-13.0,-18.4,77,30.06,-9999.0,SSE,4.5,-,N/A,,Clear,160,2012-11-22 15:00:00
11:30 PM,-14.8,-20.2,77,30.06,-9999.0,South,4.5,-,N/A,,Clear,170,2012-11-22 15:30:00